�������l�o���
Date,Time,MP-1(��Sv/h),MP-2(��Sv/h),MP-3(��Sv/h),MP-4(��Sv/h),MP-5(��Sv/h),MP-6(��Sv/h),MP-7(��Sv/h),MP-8(��Sv/h),����,����(m/s),���J
2019/12/14,00:00,0.722,1.043,0.696,1.307,0.911,0.409,0.718,0.680,�쐼,4.7,��
2019/12/14,00:10,0.718,1.043,0.696,1.305,0.911,0.410,0.717,0.681,�쐼,4.5,��
2019/12/14,00:20,0.720,1.043,0.697,1.308,0.912,0.411,0.718,0.682,�쐼,4.3,��
2019/12/14,00:30,0.721,1.044,0.695,1.306,0.911,0.410,0.718,0.682,�쐼,4.6,��
2019/12/14,00:40,0.719,1.039,0.695,1.308,0.912,0.409,0.719,0.683,�쐼,3.8,��
2019/12/14,00:50,0.721,1.041,0.695,1.306,0.912,0.409,0.718,0.681,�쐼,4.7,��
2019/12/14,01:00,0.719,1.043,0.696,1.306,0.911,0.411,0.719,0.681,�쐼,5.0,��
2019/12/14,01:10,0.719,1.042,0.695,1.305,0.912,0.410,0.719,0.681,�쐼,4.9,��
2019/12/14,01:20,0.719,1.041,0.695,1.306,0.912,0.410,0.719,0.681,�쐼,4.4,��
2019/12/14,01:30,0.722,1.042,0.696,1.306,0.912,0.409,0.719,0.683,�쐼,3.8,��
2019/12/14,01:40,0.720,1.040,0.696,1.307,0.910,0.411,0.720,0.682,���쐼,4.0,��
2019/12/14,01:50,0.720,1.044,0.694,1.307,0.908,0.410,0.717,0.681,���쐼,4.0,��
2019/12/14,02:00,0.720,1.040,0.695,1.305,0.912,0.411,0.719,0.680,�쐼,4.7,��
2019/12/14,02:10,0.721,1.041,0.695,1.307,0.911,0.410,0.720,0.682,�쐼,4.9,��
2019/12/14,02:20,0.720,1.041,0.695,1.307,0.911,0.410,0.720,0.682,��쐼,4.5,��
2019/12/14,02:30,0.718,1.042,0.697,1.306,0.913,0.409,0.720,0.681,��쐼,4.2,��
2019/12/14,02:40,0.720,1.040,0.696,1.307,0.911,0.411,0.719,0.683,�쐼,3.9,��
2019/12/14,02:50,0.721,1.040,0.696,1.306,0.911,0.411,0.719,0.681,�쐼,4.3,��
2019/12/14,03:00,0.720,1.038,0.694,1.306,0.909,0.409,0.717,0.682,�쐼,3.6,��
2019/12/14,03:10,0.720,1.042,0.694,1.306,0.910,0.411,0.720,0.681,�쐼,3.4,��
2019/12/14,03:20,0.719,1.042,0.695,1.307,0.911,0.411,0.717,0.681,�쐼,3.2,��
2019/12/14,03:30,0.719,1.041,0.696,1.306,0.912,0.411,0.719,0.682,��쐼,3.3,��
2019/12/14,03:40,0.722,1.042,0.694,1.304,0.912,0.409,0.719,0.681,��쐼,3.1,��
2019/12/14,03:50,0.721,1.043,0.697,1.306,0.912,0.411,0.718,0.683,��쐼,2.5,��
2019/12/14,04:00,0.719,1.043,0.696,1.306,0.908,0.411,0.719,0.681,��쐼,2.1,��
2019/12/14,04:10,0.719,1.041,0.694,1.306,0.911,0.412,0.718,0.683,�쐼,2.2,��
2019/12/14,04:20,0.721,1.040,0.695,1.305,0.911,0.411,0.719,0.682,�쐼,2.5,��
2019/12/14,04:30,0.721,1.042,0.694,1.304,0.911,0.410,0.720,0.681,��쐼,3.6,��
2019/12/14,04:40,0.720,1.040,0.694,1.308,0.910,0.412,0.718,0.681,��쐼,3.9,��
2019/12/14,04:50,0.720,1.041,0.694,1.307,0.910,0.411,0.717,0.682,��쐼,3.9,��
2019/12/14,05:00,0.719,1.039,0.695,1.308,0.910,0.411,0.719,0.682,��쐼,4.1,��
2019/12/14,05:10,0.721,1.040,0.695,1.309,0.911,0.410,0.719,0.682,��쐼,4.9,��
2019/12/14,05:20,0.720,1.043,0.694,1.305,0.910,0.412,0.717,0.682,��,4.7,��
2019/12/14,05:30,0.720,1.042,0.695,1.305,0.909,0.412,0.719,0.683,��,5.3,��
2019/12/14,05:40,0.721,1.041,0.695,1.308,0.911,0.410,0.720,0.682,��,4.5,��
2019/12/14,05:50,0.720,1.041,0.696,1.307,0.910,0.411,0.718,0.684,��,3.6,��
2019/12/14,06:00,0.721,1.040,0.694,1.306,0.911,0.411,0.718,0.682,��쐼,3.0,��
2019/12/14,06:10,0.721,1.042,0.694,1.306,0.909,0.411,0.720,0.682,��쐼,3.0,��
2019/12/14,06:20,0.721,1.041,0.695,1.305,0.911,0.410,0.719,0.684,��쐼,3.3,��
2019/12/14,06:30,0.720,1.042,0.694,1.304,0.911,0.410,0.721,0.681,��쐼,3.0,��
2019/12/14,06:40,0.720,1.040,0.695,1.304,0.910,0.411,0.719,0.682,��쐼,2.4,��
2019/12/14,06:50,0.722,1.042,0.695,1.305,0.910,0.412,0.719,0.683,��쐼,1.3,��
2019/12/14,07:00,0.721,1.042,0.695,1.305,0.910,0.411,0.718,0.681,��쐼,1.7,��
2019/12/14,07:10,0.720,1.040,0.695,1.308,0.909,0.410,0.719,0.683,��쐼,1.8,��
2019/12/14,07:20,0.720,1.040,0.695,1.306,0.909,0.411,0.719,0.681,��,3.5,��
2019/12/14,07:30,0.719,1.039,0.694,1.306,0.911,0.411,0.720,0.682,��쐼,3.2,��
2019/12/14,07:40,0.721,1.039,0.696,1.306,0.911,0.410,0.719,0.682,��쐼,2.2,��
2019/12/14,07:50,0.721,1.041,0.697,1.308,0.911,0.411,0.720,0.681,��쐼,1.7,��
2019/12/14,08:00,0.720,1.042,0.695,1.307,0.910,0.411,0.719,0.683,��쐼,1.8,��
2019/12/14,08:10,0.724,1.040,0.696,1.309,0.910,0.410,0.721,0.681,�쐼,1.0,��
2019/12/14,08:20,0.721,1.042,0.695,1.308,0.911,0.413,0.720,0.682,���쐼,1.2,��
2019/12/14,08:30,0.720,1.038,0.696,1.307,0.910,0.412,0.719,0.683,�쐼,1.1,��
2019/12/14,08:40,0.721,1.042,0.695,1.308,0.911,0.412,0.719,0.682,��쐼,1.3,��
2019/12/14,08:50,0.720,1.042,0.696,1.308,0.911,0.411,0.720,0.682,��,2.0,��
2019/12/14,09:00,0.721,1.044,0.696,1.308,0.909,0.412,0.720,0.681,��,2.0,��
2019/12/14,09:10,0.722,1.042,0.697,1.308,0.910,0.413,0.721,0.683,��쐼,2.7,��
2019/12/14,09:20,0.722,1.042,0.696,1.309,0.911,0.412,0.721,0.683,��쐼,2.4,��
2019/12/14,09:30,0.724,1.043,0.696,1.305,0.909,0.413,0.721,0.683,�쐼,2.2,��
2019/12/14,09:40,0.725,1.044,0.698,1.308,0.913,0.411,0.722,0.681,��쐼,2.2,��
2019/12/14,09:50,0.723,1.043,0.697,1.306,0.913,0.412,0.721,0.684,��쐼,3.0,��
2019/12/14,10:00,0.723,1.044,0.702,1.307,0.915,0.412,0.718,0.682,��,2.5,��
2019/12/14,10:10,0.726,1.044,0.696,1.306,0.913,0.412,0.719,0.682,��,2.3,��
2019/12/14,10:20,0.724,1.043,0.697,1.309,0.913,0.412,0.718,0.683,��,5.0,��
2019/12/14,10:30,0.725,1.039,0.697,1.307,0.915,0.414,0.720,0.683,��,4.9,��
2019/12/14,10:40,0.726,1.042,0.698,1.308,0.912,0.414,0.720,0.683,��,4.1,��
2019/12/14,10:50,0.724,1.039,0.697,1.310,0.914,0.411,0.720,0.684,��,2.9,��
2019/12/14,11:00,0.722,1.042,0.696,1.306,0.912,0.411,0.720,0.685,��,2.4,��
2019/12/14,11:10,0.726,1.039,0.698,1.307,0.913,0.412,0.719,0.684,��,2.1,��
2019/12/14,11:20,0.725,1.040,0.697,1.307,0.916,0.412,0.721,0.685,��쐼,4.2,��
2019/12/14,11:30,0.724,1.041,0.699,1.307,0.915,0.412,0.721,0.685,��,3.1,��
2019/12/14,11:40,0.728,1.041,0.697,1.309,0.915,0.413,0.721,0.685,��쐼,3.0,��
2019/12/14,11:50,0.725,1.041,0.699,1.311,0.916,0.412,0.722,0.684,��쓌,1.2,��
2019/12/14,12:00,0.727,1.042,0.697,1.307,0.916,0.413,0.721,0.684,���쐼,4.1,��
2019/12/14,12:10,0.725,1.041,0.697,1.309,0.914,0.415,0.723,0.684,���쐼,3.9,��
2019/12/14,12:20,0.725,1.042,0.697,1.310,0.917,0.414,0.724,0.686,���쐼,6.3,��
2019/12/14,12:30,0.726,1.042,0.699,1.309,0.917,0.414,0.723,0.684,���쐼,5.0,��
2019/12/14,12:40,0.725,1.043,0.698,1.309,0.916,0.417,0.723,0.683,��,4.0,��
2019/12/14,12:50,0.725,1.042,0.696,1.308,0.917,0.416,0.723,0.682,��,5.8,��
2019/12/14,13:00,0.727,1.042,0.698,1.311,0.915,0.416,0.724,0.681,���쐼,4.7,��
2019/12/14,13:10,0.724,1.044,0.696,1.310,0.916,0.415,0.723,0.683,�쐼,3.8,��
2019/12/14,13:20,0.725,1.043,0.697,1.310,0.916,0.415,0.722,0.682,���쐼,2.3,��
2019/12/14,13:30,0.726,1.043,0.698,1.310,0.916,0.416,0.722,0.681,���k��,3.3,��
2019/12/14,13:40,0.726,1.043,0.696,1.310,0.914,0.416,0.722,0.685,���k��,4.4,��
2019/12/14,13:50,0.726,1.042,0.697,1.310,0.918,0.417,0.723,0.682,��,5.3,��
2019/12/14,14:00,0.726,1.043,0.697,1.306,0.915,0.417,0.722,0.681,���k��,5.6,��
2019/12/14,14:10,0.726,1.045,0.696,1.306,0.918,0.416,0.722,0.681,���k��,3.6,��
2019/12/14,14:20,0.726,1.044,0.697,1.312,0.914,0.416,0.723,0.682,���쐼,2.1,��
2019/12/14,14:30,0.726,1.045,0.698,1.311,0.916,0.416,0.724,0.682,���쐼,2.7,��
2019/12/14,14:40,0.726,1.043,0.699,1.310,0.917,0.415,0.723,0.682,���k��,1.9,��
2019/12/14,14:50,0.727,1.044,0.700,1.310,0.915,0.419,0.725,0.681,�k,2.7,��
2019/12/14,15:00,0.727,1.047,0.698,1.311,0.915,0.416,0.723,0.684,�k,2.6,��
2019/12/14,15:10,0.728,1.049,0.700,1.313,0.915,0.416,0.723,0.685,�k�k��,1.9,��
2019/12/14,15:20,0.726,1.046,0.700,1.313,0.914,0.415,0.724,0.685,�k�k��,1.1,��
2019/12/14,15:30,0.725,1.045,0.701,1.310,0.915,0.416,0.723,0.686,�k��,3.1,��
2019/12/14,15:40,0.726,1.044,0.699,1.310,0.913,0.416,0.723,0.684,���k��,6.9,��
2019/12/14,15:50,0.727,1.046,0.701,1.310,0.912,0.416,0.723,0.684,��,7.8,��
2019/12/14,16:00,0.726,1.048,0.701,1.311,0.913,0.416,0.724,0.686,��,12.4,��
2019/12/14,16:10,0.726,1.047,0.701,1.311,0.914,0.415,0.723,0.686,��,12.5,��
2019/12/14,16:20,0.727,1.045,0.700,1.310,0.913,0.414,0.723,0.685,��,13.4,��
2019/12/14,16:30,0.726,1.048,0.700,1.313,0.914,0.415,0.723,0.685,��,13.7,��
2019/12/14,16:40,0.728,1.047,0.700,1.310,0.914,0.415,0.723,0.687,��,11.6,��
2019/12/14,16:50,0.728,1.046,0.701,1.309,0.915,0.415,0.721,0.686,��,9.7,��
2019/12/14,17:00,0.729,1.046,0.701,1.312,0.916,0.414,0.723,0.685,���쐼,8.6,��
2019/12/14,17:10,0.729,1.048,0.700,1.311,0.916,0.416,0.721,0.685,��,8.8,��
2019/12/14,17:20,0.729,1.047,0.700,1.312,0.918,0.415,0.723,0.684,���쐼,7.1,��
2019/12/14,17:30,0.729,1.047,0.699,1.313,0.917,0.416,0.723,0.684,���쐼,4.4,��
2019/12/14,17:40,0.726,1.047,0.699,1.312,0.916,0.415,0.722,0.685,���쐼,5.2,��
2019/12/14,17:50,0.726,1.045,0.700,1.310,0.915,0.415,0.721,0.685,���쐼,6.0,��
2019/12/14,18:00,0.727,1.047,0.700,1.310,0.917,0.415,0.723,0.685,���쐼,6.1,��
2019/12/14,18:10,0.727,1.047,0.701,1.311,0.918,0.414,0.722,0.685,���쐼,7.1,��
2019/12/14,18:20,0.727,1.046,0.700,1.314,0.915,0.416,0.724,0.685,���쐼,7.5,��
2019/12/14,18:30,0.726,1.046,0.699,1.313,0.916,0.416,0.723,0.685,���쐼,8.8,��
2019/12/14,18:40,0.726,1.046,0.698,1.313,0.918,0.415,0.722,0.684,��,7.4,��
2019/12/14,18:50,0.727,1.044,0.698,1.313,0.916,0.415,0.723,0.683,��,9.9,��
2019/12/14,19:00,0.726,1.046,0.699,1.311,0.916,0.415,0.722,0.684,��,5.5,��
2019/12/14,19:10,0.726,1.045,0.699,1.312,0.916,0.416,0.721,0.682,���k��,8.2,��
2019/12/14,19:20,0.726,1.046,0.699,1.313,0.916,0.416,0.722,0.683,�k��,8.5,�L
2019/12/14,19:30,0.727,1.043,0.702,1.313,0.916,0.417,0.721,0.684,�k�k��,6.0,�L
2019/12/14,19:40,0.726,1.045,0.702,1.313,0.916,0.417,0.722,0.684,�k��,6.9,�L
2019/12/14,19:50,0.727,1.043,0.700,1.314,0.915,0.418,0.722,0.684,�k��,6.7,�L
2019/12/14,20:00,0.727,1.044,0.699,1.314,0.914,0.416,0.723,0.685,���k��,7.2,�L
2019/12/14,20:10,0.726,1.042,0.698,1.314,0.915,0.416,0.722,0.684,�k��,7.1,��
2019/12/14,20:20,0.724,1.044,0.701,1.314,0.917,0.417,0.722,0.686,���k��,6.6,��
2019/12/14,20:30,0.725,1.042,0.699,1.312,0.917,0.415,0.724,0.682,���k��,6.9,��
2019/12/14,20:40,0.724,1.042,0.699,1.310,0.916,0.415,0.722,0.685,�k��,7.1,��
2019/12/14,20:50,0.722,1.042,0.699,1.311,0.915,0.414,0.723,0.684,���k��,6.4,��
2019/12/14,21:00,0.724,1.038,0.699,1.312,0.915,0.414,0.722,0.682,�k��,7.1,��
2019/12/14,21:10,0.723,1.041,0.698,1.311,0.914,0.415,0.722,0.685,���k��,8.5,��
2019/12/14,21:20,0.724,1.040,0.699,1.311,0.916,0.412,0.723,0.683,���k��,6.0,�L
2019/12/14,21:30,0.723,1.042,0.699,1.313,0.914,0.415,0.723,0.685,���k��,7.8,�L
2019/12/14,21:40,0.723,1.040,0.700,1.312,0.914,0.413,0.722,0.684,�k��,6.6,�L
2019/12/14,21:50,0.722,1.042,0.698,1.313,0.915,0.414,0.724,0.682,�k��,7.1,�L
2019/12/14,22:00,0.722,1.042,0.697,1.311,0.914,0.412,0.722,0.684,�k��,6.1,�L
2019/12/14,22:10,0.722,1.042,0.699,1.312,0.915,0.413,0.721,0.684,�k��,3.8,�L
2019/12/14,22:20,0.722,1.042,0.698,1.311,0.914,0.414,0.721,0.683,�k�k��,4.4,��
2019/12/14,22:30,0.721,1.038,0.698,1.311,0.913,0.413,0.723,0.683,�k�k��,2.6,��
2019/12/14,22:40,0.721,1.039,0.700,1.313,0.911,0.412,0.722,0.683,�k�k��,1.8,��
2019/12/14,22:50,0.721,1.038,0.697,1.307,0.912,0.412,0.722,0.683,�k,3.1,��
2019/12/14,23:00,0.723,1.042,0.697,1.313,0.912,0.412,0.719,0.683,�k�k��,3.8,��
2019/12/14,23:10,0.722,1.040,0.698,1.310,0.912,0.412,0.721,0.682,�k�k��,4.0,��
2019/12/14,23:20,0.723,1.040,0.697,1.310,0.912,0.411,0.721,0.684,�k,4.6,��
2019/12/14,23:30,0.720,1.041,0.699,1.310,0.914,0.411,0.723,0.683,�k,4.1,��
2019/12/14,23:40,0.721,1.040,0.697,1.311,0.913,0.412,0.722,0.683,�k�k��,3.4,��
2019/12/14,23:50,0.721,1.041,0.698,1.310,0.912,0.413,0.722,0.684,�k,5.6,��
